Regional Weather Roundup
Issued by NWS

Home | Current Version | Previous Version | Graphics & Text | Print | Product List | Glossary On
Versions: 1 2 3 4 5 6 7 8 9 10 11 12 13 14 15 16 17 18 19 20 21 22 23 24 25 26 27 28 29 30 31 32 33 34 35 36 37 38 39 40 41 42 43 44 45 46 47 48 49 50
000
ASUS44 KMEG 240210
RWRTN
TENNESSEE HOURLY STATE WEATHER ROUNDUP
NATIONAL WEATHER SERVICE MEMPHIS TN
800 PM CST THU NOV 23 2017

TNZ002-004-019-021-049-052-054-088>092-240300-
WEST TENNESSEE

CITY           SKY/WX    TMP DP  RH WIND       PRES   REMARKS
MEMPHIS INTL   PTCLDY    42  30  62 CALM      30.06R
NWS MEMPHIS      N/A     39 N/A N/A MISG        N/A
JACKSON        CLEAR     34  28  79 S3        30.06R
DYERSBURG      CLEAR     39  29  67 CALM      30.06R
SOMERVILLE     CLEAR     37  27  65 CALM      30.04S
COVINGTON      CLEAR     36  28  75 CALM      30.06S
UNION CITY     CLEAR     39  25  56 S3        30.04S
BOLIVAR        CLEAR     36  27  69 CALM      30.05R
PARIS          CLEAR     37  23  56 CALM      30.03S
HUNTINGDON     CLEAR     37  27  65 CALM      30.03F
LEXINGTON      CLEAR     37  23  56 CALM      30.05R
SELMER         CLEAR     36  25  64 W3        30.05R
SAVANNAH       CLEAR     34  28  80 CALM      30.05R
$$

TNZ008-025-027-028-033-062-065-066-240300-
NORTH MIDDLE TENNESSEE

CITY           SKY/WX    TMP DP  RH WIND       PRES   REMARKS
NASHVILLE      CLEAR     38  27  64 S6        30.04S WCI  33
PORTLAND       CLEAR     36  25  64 CALM      30.03R
SMYRNA         CLEAR     34  28  79 CALM      30.05F
COOKEVILLE     CLEAR     28  27  93 CALM      30.03S
GALLATIN       CLEAR     36  27  69 CALM      30.06S
CROSSVILLE     CLEAR     37  25  61 CALM      30.03S
$$

TNZ061-075-076-078-094-096-097-240300-
SOUTH MIDDLE TENNESSEE

CITY           SKY/WX    TMP DP  RH WIND       PRES   REMARKS
FAYETTEVILLE   CLEAR     45  19  36 NE3       30.03S
TULLAHOMA      PTCLDY    34  25  69 CALM      30.03S
WINCHESTER     CLEAR     34  30  86 CALM      30.05R
MCMINNVILLE    CLEAR     36  27  69 CALM      30.03F
COLUMBIA       CLEAR     36  25  64 SW3       30.02S
SHELBYVILLE    CLEAR     32  28  86 SE3       30.03F
$$

TNZ017-018-042-046-047-240300-
NORTHEAST TENNESSEE

CITY           SKY/WX    TMP DP  RH WIND       PRES   REMARKS
TRI CITIES     CLEAR     35  31  85 CALM      30.03S
ELIZABETHTON   MOCLDY    34  32  93 CALM      30.04S
$$

TNZ012-013-036-069-073-074-240300-
CENTRAL EAST TENNESSEE

CITY           SKY/WX    TMP DP  RH WIND       PRES   REMARKS
KNOXVILLE      CLEAR     42  35  76 CALM      30.02S
OAK RIDGE      CLEAR     38  34  85 CALM      30.04F
DOWNTOWN KNOXV CLEAR     39  37  93 CALM      30.04S
GATLINBURG     PTCLDY    37  32  81 CALM      30.03F
MORRISTOWN     MOCLDY    39  32  75 CALM      30.02F
JACKSBORO      CLEAR     34  32  93 CALM      30.06F
$$

TNZ083-085-099-240300-
SOUTHEAST TENNESSEE

CITY           SKY/WX    TMP DP  RH WIND       PRES   REMARKS
CHATTANOOGA    CLEAR     42  36  79 CALM      30.04R
DAYTON         MOCLDY    36  34  93 CALM      30.03S
$$

SKY/WX REPORTED AS FAIR MEANS FEW OR NO CLOUDS BELOW
12 THOUSAND FEET.





USA.gov is the U.S. government's official web portal to all federal, state and local government web resources and services.